This demonstration page uses our WeatherBlox Daily Observations layout. Learn more.

Left ArrowRight Arrow

39.29038, -76.61219

Hourly Observations for December 1, 2020

Temp ( °F °C ) Dew Point ( °F °C ) Humidity (%) Winds ( mph kmh ) Pressure ( in mb ) Visibility ( mi km ) Precip ( " mm )
12:54 am 00:54 Mostly Clear 45 7.2 35 1.7 68 68 W 8 13 29.50 999 10 16 0.00 0.00
1:54 am 01:54 Mostly Cloudy 47 8.3 36 2.2 66 66 WSW 5 7 29.51 999 10 16 0.00 0.00
2:54 am 02:54 Mostly Cloudy 46 7.8 34 1.1 63 63 WSW 9 15 29.52 1000 10 16 0.00 0.00
3:54 am 03:54 Mostly Cloudy 45 7.2 32 0 61 61 WSW 9 15 29.52 1000 10 16 0.00 0.00
4:54 am 04:54 Cloudy with Light Rain 45 7.2 31 -0.6 58 58 W 9 15 29.54 1000 10 16 0.00 0.00
5:54 am 05:54 Cloudy 43 6.1 33 0.6 68 68 W 9 15 29.56 1001 10 16 0.00 0.00
6:54 am 06:54 Mostly Cloudy 42 5.6 32 0 68 68 W 12 19 29.59 1002 10 16 0.00 0.00
7:54 am 07:54 Cloudy 40 4.4 32 0 73 73 W 17 28 29.61 1003 10 16 0.00 0.00
8:54 am 08:54 Mostly Cloudy with Light Rain 40 4.4 32 0 73 73 W 10 17 29.63 1004 10 16 0.00 0.00
9:54 am 09:54 Mostly Cloudy 42 5.6 32 0 68 68 WSW 15 24 29.65 1004 10 16 0.00 0.00
10:54 am 10:54 Mostly Cloudy 45 7.2 29 -1.7 54 54 W 21 33 29.66 1004 10 16 0.00 0.00
11:54 am 11:54 Mostly Cloudy 45 7.2 27 -2.8 49 49 W 14 22 29.66 1004 10 16 0.00 0.00
12:54 pm 12:54 Mostly Cloudy 45 7.2 24 -4.4 44 44 W 26 43 29.68 1005 10 16 0.00 0.00
1:54 pm 13:54 Mostly Cloudy 44 6.7 24 -4.4 45 45 W 18 30 29.70 1006 10 16 0.00 0.00
2:54 pm 14:54 Mostly Cloudy 44 6.7 23 -5 43 43 W 17 28 29.72 1007 10 16 0.00 0.00
3:54 pm 15:54 Mostly Cloudy 43 6.1 22 -5.6 43 43 W 20 31 29.75 1008 10 16 0.00 0.00
4:54 pm 16:54 Cloudy 42 5.6 24 -4.4 49 49 W 18 30 29.78 1008 10 16 0.00 0.00
5:54 pm 17:54 Cloudy 42 5.6 23 -5 47 47 W 15 24 29.82 1010 10 16 0.00 0.00
6:54 pm 18:54 Cloudy 41 5 23 -5 49 49 W 17 28 29.85 1011 10 16 0.00 0.00
7:54 pm 19:54 Cloudy 40 4.4 21 -6.1 47 47 W 18 30 29.86 1011 10 16 0.00 0.00
8:54 pm 20:54 Cloudy 40 4.4 22 -5.6 49 49 W 12 19 29.88 1012 10 16 0.00 0.00
9:54 pm 21:54 Cloudy 39 3.9 21 -6.1 48 48 W 9 15 29.89 1012 10 16 0.00 0.00
10:54 pm 22:54 Cloudy 40 4.4 20 -6.7 45 45 WSW 14 22 29.91 1013 10 16 0.00 0.00
11:54 pm 23:54 Mostly Cloudy 39 3.9 21 -6.1 48 48 W 13 20 29.91 1013 10 16 0.00 0.00

Powered by AerisWeather